#timestamp,LO_Frequency,Hit,StdDev 
1626246015.3,286046993.8,N
1626246035.2,286046996.4,N
1626246055.9,286046993.8,N
1626246075.7,286046994.0,N
1626246095.6,286046993.5,N
1626246115.4,286046993.9,N
1626246135.3,286046993.6,N
1626246155.1,286046996.4,N
1626246156.0,286046996.4,N
1626246175.8,286046995.8,N
1626246195.7,286046995.7,N
1626246215.5,286046995.6,N
1626246235.3,286046995.2,N
1626246255.2,286046997.4,N
1626246275.0,286046997.0,N
1626246275.9,286046997.0,N
1626246295.8,286046999.3,N
1626246315.6,286046999.3,N
1626246335.4,286046999.3,N
1626246355.3,286046998.7,N
1626246375.1,286046998.4,N
1626246395.8,286047002.7,N
1626246415.7,286046999.8,N
1626246435.5,286047003.3,N
1626246455.4,286047004.7,N
1626246475.2,286047003.7,N
1626246495.0,286047005.4,N
1626246495.9,286047005.4,N
1626246515.8,286047005.5,N
1626246535.6,286047005.8,N
1626246555.7,286047003.7,N
1626246575.6,286047004.2,N
1626246595.4,286047002.6,N
1626246615.2,286047003.8,N
1626246635.1,286047003.4,N
1626246636.0,286047003.4,N
1626246655.8,286047007.0,N
1626246675.7,286047010.4,N
1626246695.5,286047009.6,N
1626246715.3,286047010.2,N
1626246735.2,286047007.7,N
1626246755.0,286047007.0,N
1626246755.9,286047007.0,N
1626246775.7,286047002.9,N
1626246795.6,286047004.9,N
1626246815.4,286047008.9,N
1626246835.3,286047006.6,N
1626246855.1,286047007.8,N
1626246875.8,286047011.0,Y
1626246895.7,286047006.1,P
1626246915.5,286047008.7,P
1626246935.4,286047006.9,P
1626246955.2,286047003.1,N
1626246975.0,286047002.1,N
1626246975.9,286047002.1,N
1626246995.8,286047002.8,N
1626247015.6,286046999.9,N
1626247035.4,286046998.2,N
1626247055.3,286046996.5,N
1626247075.1,286046996.5,N
1626247095.9,286046998.4,N
1626247115.7,286046999.5,N
1626247135.5,286046998.1,N
1626247155.4,286046999.1,N
1626247175.2,286046997.9,N
1626247195.0,286046997.6,N
1626247195.9,286046997.6,N
1626247215.8,286046999.2,N
1626247235.6,286046998.1,N
1626247255.4,286046998.6,N
1626247275.3,286046999.6,N
1626247295.1,286046997.5,N
1626247315.9,286046995.0,N
1626247335.7,286046995.1,N
1626247355.5,286046996.8,N
1626247375.4,286047001.1,N
1626247395.2,286047000.6,N
1626247415.0,286046998.6,N
1626247415.9,286046998.6,N
1626247435.8,286046998.7,N
1626247455.6,286046998.4,N
1626247475.5,286046998.6,N
1626247495.3,286046998.0,N
1626247515.1,286046996.4,N
1626247535.9,286046994.5,Y
1626247555.7,286046994.7,P
1626247575.5,286046992.9,P
1626247595.4,286046991.8,P
1626247615.2,286046991.8,Y
1626247635.1,286046996.9,P
1626247636.0,286046996.9,N
1626247655.8,286046997.1,N
1626247675.6,286046997.4,N
1626247695.5,286046997.2,N
1626247715.3,286046996.0,Y
1626247735.1,286046996.5,P
1626247755.9,286046999.4,P
1626247775.7,286046997.0,N
1626247795.6,286046997.2,N
1626247815.4,286046995.2,Y
1626247835.2,286047000.9,P
1626247855.1,286047000.9,N
1626247856.0,286047000.9,N
1626247875.8,286046998.2,N
1626247895.7,286046998.7,N
1626247915.5,286046998.8,N
1626247935.3,286046998.7,N
1626247955.2,286046998.6,N
1626247975.9,286046998.6,N
1626247995.7,286046998.7,N
1626248015.6,286046998.9,N
1626248035.4,286046997.7,N
1626248055.2,286046996.9,N
1626248075.1,286046999.5,N
1626248076.0,286046999.5,N
1626248095.8,286046998.4,N
1626248115.7,286046998.1,N
1626248135.6,286047000.9,N
1626248155.4,286046999.6,N
1626248175.3,286046999.2,N
1626248195.1,286046999.4,N
1626248196.0,286046999.4,N
1626248215.8,286046998.8,N
1626248235.7,286046999.0,N
1626248255.5,286046997.3,N
1626248275.3,286046999.3,N
1626248295.2,286046998.6,N
1626248315.0,286046998.9,N
1626248315.9,286046998.9,N
1626248335.8,286046998.2,N
1626248355.6,286046998.1,N
1626248375.4,286046998.1,N
1626248395.3,286047001.1,N
1626248415.1,286046998.5,N
1626248435.9,286046998.1,N
1626248455.7,286047000.6,N
1626248475.5,286046998.6,N
1626248495.4,286047001.0,N
1626248515.2,286047002.7,N
1626248535.0,286047000.5,N
1626248536.0,286047000.5,N
1626248555.8,286047000.2,N
1626248575.6,286047000.5,N
1626248595.5,286047000.8,N
1626248615.3,286046998.6,N
1626248635.1,286046998.4,N
1626248655.9,286047000.9,N
1626248675.7,286047001.1,N
1626248695.6,286046998.5,N
1626248715.4,286047000.7,N
1626248735.2,286047000.9,N
1626248755.1,286046998.1,N
1626248756.0,286046998.1,N
1626248775.8,286047001.2,N
1626248795.6,286046999.0,N
1626248815.5,286046998.2,N
1626248835.3,286046998.5,N
1626248855.2,286046999.0,N
1626248875.9,286047000.6,N
1626248895.7,286046999.9,N
1626248915.6,286047000.0,N
1626248935.4,286047000.4,N
1626248955.2,286047000.2,N
1626248975.1,286047002.1,N
1626248976.0,286047002.1,N
1626248995.8,286047001.3,N
1626249015.7,286047003.9,Y
1626249035.5,286047001.8,P
1626249055.3,286047001.6,N
1626249075.2,286047003.6,P
1626249095.0,286047004.0,Y
1626249095.9,286047004.0,P
1626249115.8,286046999.8,N
1626249135.6,286046999.9,N
1626249155.4,286047002.7,N
1626249175.3,286047002.8,N
1626249195.1,286047000.0,N
1626249215.8,286047002.7,N
1626249235.7,286047000.1,N
1626249255.5,286046999.9,N
1626249275.4,286047000.1,N
1626249295.2,286047000.3,N
1626249315.0,286046999.8,N
1626249315.9,286046999.8,N
1626249335.8,286047000.6,N
1626249355.6,286046998.2,N
1626249375.4,286047000.6,N
1626249395.3,286047000.7,N
1626249415.1,286046998.5,N
1626249435.9,286047000.9,N
1626249455.7,286047000.4,N
1626249475.5,286046998.7,N
1626249495.4,286046998.7,N
1626249515.2,286046998.7,N
1626249535.0,286046998.2,N
1626249535.9,286046998.2,N
1626249555.8,286047000.3,N
1626249575.6,286047000.4,N
1626249595.5,286047000.7,N
